This demonstration page uses our WeatherBlox Daily Observations layout. Learn more.

Left ArrowRight Arrow

39.01783, -85.05884

Hourly Observations for September 22, 2017

Temp ( °F °C ) Dew Point ( °F °C ) Humidity (%) Winds ( mph kmh ) Pressure ( in mb ) Visibility ( mi km ) Precip ( " mm )
12:52 am 00:52 Clear 76 24.4 70 21.1 82 82 SE 3 6 30.05 1018 9 14 0.00 0.00
1:52 am 01:52 Mostly Clear 74 23.3 69 20.6 85 85 S 3 6 30.06 1018 9 14 0.00 0.00
2:52 am 02:52 Partly Cloudy 71 21.7 69 20.6 94 94 Calm 30.06 1018 8 13 0.00 0.00
3:52 am 03:52 Partly Cloudy with Mist and Fog 71 21.7 71 21.7 100 100 Calm 30.05 1018 6 10 0.00 0.00
4:52 am 04:52 Mostly Clear 70 21.1 70 21.1 100 100 Calm 30.05 1018 7 11 0.00 0.00
5:52 am 05:52 Mostly Clear with Mist and Fog 68 20 68 20 100 100 Calm 30.06 1018 6 10 0.00 0.00
6:49 am 06:49 Clear with Mist and Fog 66 19 66 19 100 100 SSE 3 6 30.09 1019 2 2 0.00 0.00
6:52 am 06:52 Clear with Patchy Fog 65 18.3 65 18.3 100 100 S 3 6 30.08 1019 5 8 0.00 0.00
7:52 am 07:52 Sunny with Mist and Fog 67 19.4 67 19.4 100 100 Calm 30.10 1019 6 10 0.00 0.00
8:52 am 08:52 Mostly Sunny 74 23.3 71 21.7 91 91 Calm 30.10 1019 7 11 0.00 0.00
9:52 am 09:52 Mostly Sunny 80 26.7 70 21.1 71 71 Calm 30.10 1019 10 16 0.00 0.00
10:52 am 10:52 Mostly Cloudy 81 27.2 70 21.1 69 69 Calm 30.11 1020 9 14 0.00 0.00
11:52 am 11:52 Mostly Sunny 85 29.4 69 20.6 59 59 Calm 30.09 1019 10 16 0.00 0.00
12:52 pm 12:52 Mostly Sunny 87 30.6 69 20.6 55 55 VRB 3 6 30.08 1019 10 16 0.00 0.00
1:52 pm 13:52 Partly Cloudy 88 31.1 70 21.1 55 55 VRB 3 6 30.06 1018 10 16 0.00 0.00
2:52 pm 14:52 Partly Cloudy 88 31.1 69 20.6 54 54 SE 7 11 30.05 1018 10 16 0.00 0.00
3:52 pm 15:52 Mostly Cloudy 88 31.1 67 19.4 50 50 Calm 30.03 1017 10 16 0.00 0.00
4:52 pm 16:52 Mostly Cloudy 88 31.1 68 20 52 52 S 3 6 30.02 1017 10 16 0.00 0.00
5:52 pm 17:52 Partly Cloudy 87 30.6 69 20.6 55 55 E 5 7 30.01 1016 10 16 0.00 0.00
6:52 pm 18:52 Partly Cloudy 82 27.8 70 21.1 67 67 S 5 7 30.02 1017 10 16 0.00 0.00
7:52 pm 19:52 Partly Cloudy 78 25.6 69 20.6 74 74 Calm 30.02 1017 10 16 0.00 0.00
8:52 pm 20:52 Clear 76 24.4 69 20.6 79 79 Calm 30.04 1017 10 16 0.00 0.00
9:52 pm 21:52 Clear 76 24.4 68 20 77 77 Calm 30.04 1017 10 16 0.00 0.00
10:52 pm 22:52 Clear 74 23.3 68 20 82 82 Calm 30.04 1017 10 16 0.00 0.00
11:52 pm 23:52 Clear 70 21.1 68 20 93 93 Calm 30.04 1017 9 14 0.00 0.00

Powered by AerisWeather